GW3620 Weather Reports


Display with metric or nautical units.
time (UTC)temp
F
wind
direction
speed
MPH
gust
MPH
rain 1hr
in
rain 24hr
in
rain mn
in
humidity
%
barometer
mb
20260902202032 93 281 5.0 12.0 0.00 0.00 0.00 41 1015.8
20260902201032 93 88 3.0 12.0 0.00 0.00 0.00 42 1016.2
20260902200032 92 84 2.0 9.0 0.00 0.00 0.00 43 1016.7
20260902195032 92 69 5.0 9.0 0.00 0.00 0.00 44 1016.7
20260902194032 92 273 5.0 13.0 0.00 0.00 0.00 45 1017.0
20260902193047 91 277 6.0 10.0 0.00 0.00 0.00 45 1016.9
20260902192047 91 77 5.0 13.0 0.00 0.00 0.00 46 1016.9
20260902191032 91 61 4.0 10.0 0.00 0.00 0.00 45 1017.3
20260902190032 91 271 3.0 12.0 0.00 0.00 0.00 46 1017.5
20260902185051 90 88 2.0 10.0 0.00 0.00 0.00 47 1017.5
20260902184032 90 85 7.0 12.0 0.00 0.00 0.00 47 1017.7
20260902183106 90 277 2.0 7.0 0.00 0.00 0.00 47 1018.0
20260902182047 90 287 1.0 7.0 0.00 0.00 0.00 47 1018.0
20260902181030 89 83 6.0 10.0 0.00 0.00 0.00 47 1017.9
20260902180049 89 70 2.0 7.0 0.00 0.00 0.00 47 1018.1
20260902175032 89 65 3.0 6.0 0.00 0.00 0.00 48 1018.1
20260902174106 89 84 2.0 9.0 0.00 0.00 0.00 49 1018.2
20260902173032 88 345 0.0 3.0 0.00 0.00 0.00 49 1018.3
20260902171030 88 295 2.0 10.0 0.00 0.00 0.00 49 1018.3
20260902170032 88 89 4.0 12.0 0.00 0.00 0.00 49 1018.3
20260902164032 87 70 0.0 6.0 0.00 0.00 0.00 51 1018.2
20260902163032 87 65 1.0 4.0 0.00 0.00 0.00 51 1018.2
20260902162106 86 15 1.0 7.0 0.00 0.00 0.00 53 1018.2
20260902161049 86 52 1.0 4.0 0.00 0.00 0.00 55 1018.1
20260902160030 85 30 1.0 6.0 0.00 0.00 0.00 57 1018.1
20260902155032 84 342 1.0 3.0 0.00 0.00 0.00 58 1018.1
20260902154056 84 8 2.0 6.0 0.00 0.00 0.00 58 1018.3
20260902153049 84 358 1.0 7.0 0.00 0.00 0.00 58 1018.3
20260902152032 83 339 1.0 4.0 0.00 0.00 0.00 59 1018.3
20260902151032 83 321 2.0 7.0 0.00 0.00 0.00 60 1018.3
20260902150030 82 0 0.0 3.0 0.00 0.00 0.00 61 1018.3
20260902145030 81 40 0.0 3.0 0.00 0.00 0.00 63 1018.3
20260902144032 80 0 0.0 0.0 0.00 0.00 0.00 67 1018.4
20260902143049 79 0 0.0 0.0 0.00 0.00 0.00 70 1018.4
20260902142034 78 0 0.0 0.0 0.00 0.00 0.00 72 1018.4
20260902141047 77 0 0.0 0.0 0.00 0.00 0.00 74 1017.8
20260902140030 75 0 0.0 0.0 0.00 0.00 0.00 76 1018.3
20260902135048 74 0 0.0 0.0 0.00 0.00 0.00 79 1018.3
20260902134030 74 0 0.0 0.0 0.00 0.00 0.00 79 1018.2
20260902133030 74 0 0.0 0.0 0.00 0.00 0.00 78 1018.1
20260902132030 74 0 0.0 0.0 0.00 0.00 0.00 77 1018.1
20260902131030 75 0 0.0 0.0 0.00 0.00 0.00 76 1017.5
20260902130030 75 0 0.0 0.0 0.00 0.00 0.00 75 1017.2
20260902125030 75 0 0.0 0.0 0.00 0.00 0.00 74 1017.2
20260902124047 76 37 0.0 3.0 0.00 0.00 0.00 73 1017.1
20260902123030 76 0 0.0 0.0 0.00 0.00 0.00 72 1017.0
20260902122030 76 0 0.0 0.0 0.00 0.00 0.00 72 1017.0
20260902121030 76 0 0.0 0.0 0.00 0.00 0.00 71 1016.9
20260902120030 76 0 0.0 0.0 0.00 0.00 0.00 71 1016.8
20260902115030 75 0 0.0 0.0 0.00 0.00 0.00 71 1016.8
20260902114030 75 0 0.0 0.0 0.00 0.00 0.00 71 1016.9
20260902113030 75 0 0.0 0.0 0.00 0.00 0.00 72 1016.9
20260902112047 75 0 0.0 0.0 0.00 0.00 0.00 73 1016.9
20260902111030 75 0 0.0 0.0 0.00 0.00 0.00 73 1016.7
20260902110032 75 313 0.0 1.0 0.00 0.00 0.00 74 1016.8
20260902105030 75 0 0.0 0.0 0.00 0.00 0.00 74 1016.8
20260902104047 75 0 0.0 0.0 0.00 0.00 0.00 75 1017.0
20260902103032 75 0 0.0 0.0 0.00 0.00 0.00 75 1017.0
20260902102030 75 0 0.0 0.0 0.00 0.00 0.00 75 1017.0
20260902101032 75 0 0.0 0.0 0.00 0.00 0.00 75 1016.9
20260902100032 76 0 0.0 0.0 0.00 0.00 0.00 74 1016.9
20260902095032 76 286 0.0 1.0 0.00 0.00 0.00 74 1016.9
20260902094032 76 0 0.0 0.0 0.00 0.00 0.00 73 1017.0
20260902093049 76 0 0.0 0.0 0.00 0.00 0.00 73 1016.9
20260902092032 76 0 0.0 0.0 0.00 0.00 0.00 72 1016.9
20260902091104 76 0 0.0 0.0 0.00 0.00 0.00 71 1016.9
20260902090032 77 0 0.0 0.0 0.00 0.00 0.00 70 1016.9
20260902085032 77 0 0.0 0.0 0.00 0.00 0.00 70 1016.9
20260902084032 77 285 0.0 6.0 0.00 0.00 0.00 68 1016.9
20260902083032 77 290 1.0 7.0 0.00 0.00 0.00 67 1016.4
20260902082032 77 0 0.0 0.0 0.00 0.00 0.00 67 1016.4
20260902081032 77 0 0.0 0.0 0.00 0.00 0.00 67 1016.5
20260902080030 78 0 0.0 0.0 0.00 0.00 0.00 65 1016.4
20260902075032 78 0 0.0 0.0 0.00 0.00 0.00 64 1016.4
20260902074106 79 0 0.0 0.0 0.00 0.00 0.00 63 1016.3
20260902073049 79 0 0.0 0.0 0.00 0.00 0.00 62 1016.4
20260902072032 79 0 0.0 0.0 0.00 0.00 0.00 61 1016.4
20260902071049 79 0 0.0 0.0 0.00 0.00 0.00 62 1016.6
20260902070032 79 0 0.0 0.0 0.00 0.00 0.00 62 1016.5
20260902065030 79 0 0.0 0.0 0.00 0.00 0.00 62 1016.5
20260902064032 80 0 0.0 0.0 0.00 0.00 0.00 62 1016.4
20260902063049 80 14 0.0 1.0 0.00 0.00 0.00 62 1016.4
20260902062032 80 14 0.0 1.0 0.00 0.00 0.00 62 1016.4
20260902061049 80 21 0.0 3.0 0.00 0.00 0.00 63 1016.6
20260902060032 80 0 0.0 0.0 0.00 0.00 0.00 62 1016.5
20260902055030 80 52 0.0 1.0 0.00 0.00 0.00 62 1016.5
20260902054030 81 37 0.0 1.0 0.00 0.00 0.00 62 1016.6
20260902053032 81 41 0.0 1.0 0.00 0.00 0.00 62 1016.8
20260902052032 81 43 0.0 3.0 0.00 0.00 0.00 62 1016.8
20260902051032 81 0 0.0 0.0 0.00 0.00 0.00 61 1017.0
20260902050032 81 0 0.0 0.0 0.00 0.00 0.00 61 1016.9
20260902045049 82 55 0.0 1.0 0.00 0.00 0.00 60 1016.9
20260902044030 82 49 0.0 1.0 0.00 0.00 0.00 60 1016.8
20260902043032 82 49 0.0 1.0 0.00 0.00 0.00 60 1016.7
20260902042032 82 45 0.0 1.0 0.00 0.00 0.00 59 1016.7
20260902041032 83 339 0.0 3.0 0.00 0.00 0.00 59 1016.7
20260902040049 83 0 0.0 0.0 0.00 0.00 0.00 57 1016.7
20260902035032 83 0 0.0 0.0 0.00 0.00 0.00 56 1016.7
20260902034032 84 0 0.0 0.0 0.00 0.00 0.00 54 1016.1
20260902033030 84 0 0.0 0.0 0.00 0.00 0.00 53 1016.1
20260902032032 84 0 0.0 0.0 0.00 0.00 0.00 53 1016.1
20260902031032 84 0 0.0 0.0 0.00 0.00 0.00 53 1015.8
20260902030049 84 0 0.0 0.0 0.00 0.00 0.00 52 1015.4
20260902025032 85 0 0.0 0.0 0.00 0.00 0.00 51 1015.4
20260902024032 85 0 0.0 0.0 0.00 0.00 0.00 49 1015.0
20260902023032 86 0 0.0 0.0 0.00 0.00 0.00 47 1015.1
20260902022047 87 0 0.0 0.0 0.00 0.00 0.00 45 1015.1
20260902021032 87 0 0.0 0.0 0.00 0.00 0.00 43 1015.2
20260902020032 88 0 0.0 0.0 0.00 0.00 0.00 42 1014.9
20260902015030 89 281 0.0 3.0 0.00 0.00 0.00 40 1014.9
20260902014030 90 286 1.0 3.0 0.00 0.00 0.00 39 1014.7
20260902013032 90 277 2.0 9.0 0.00 0.00 0.00 39 1014.8
20260902012030 91 278 5.0 9.0 0.00 0.00 0.00 38 1014.8
20260902011030 91 285 2.0 9.0 0.00 0.00 0.00 38 1014.9
20260902010032 91 286 4.0 10.0 0.00 0.00 0.00 38 1015.0
20260902005030 92 273 4.0 9.0 0.00 0.00 0.00 38 1015.0
20260902004047 92 88 4.0 7.0 0.00 0.00 0.00 38 1015.1
20260902003030 92 271 4.0 9.0 0.00 0.00 0.00 38 1015.2
20260902002030 92 87 2.0 10.0 0.00 0.00 0.00 38 1015.2
20260902001047 92 278 3.0 7.0 0.00 0.00 0.00 38 1015.3
20260902000030 92 85 4.0 9.0 0.00 0.00 0.00 38 1015.4
20260901235030 92 77 7.0 10.0 0.00 0.00 0.00 38 1015.4
20260901234030 93 67 3.0 10.0 0.00 0.00 0.00 38 1015.2
20260901233030 93 79 4.0 9.0 0.00 0.00 0.00 39 1015.2
20260901232030 93 288 3.0 9.0 0.00 0.00 0.00 39 1015.2
20260901231030 93 273 7.0 13.0 0.00 0.00 0.00 40 1015.4
20260901230030 93 82 6.0 13.0 0.00 0.00 0.00 40 1015.6
20260901225030 93 274 4.0 10.0 0.00 0.00 0.00 40 1015.6
20260901224030 93 80 3.0 10.0 0.00 0.00 0.00 40 1015.6
20260901223047 93 72 3.0 7.0 0.00 0.00 0.00 40 1015.9
20260901222030 92 82 2.0 7.0 0.00 0.00 0.00 41 1015.9
20260901221032 92 86 4.0 10.0 0.00 0.00 0.00 41 1015.8
20260901220030 92 273 3.0 7.0 0.00 0.00 0.00 41 1016.2
20260901215047 92 81 4.0 9.0 0.00 0.00 0.00 41 1016.2
20260901214030 92 279 2.0 10.0 0.00 0.00 0.00 41 1016.3
20260901213030 92 38 1.0 7.0 0.00 0.00 0.00 41 1016.5
20260901212030 92 273 0.0 7.0 0.00 0.00 0.00 41 1016.5
20260901211032 92 274 3.0 9.0 0.00 0.00 0.00 41 1016.8
20260901210030 92 57 0.0 4.0 0.00 0.00 0.00 40 1017.1
20260901205032 91 58 0.0 1.0 0.00 0.00 0.00 40 1017.1
20260901204030 91 83 2.0 7.0 0.00 0.00 0.00 41 1017.6
20260901203032 91 83 4.0 10.0 0.00 0.00 0.00 41 1017.6